Time,TemperatureF,DewpointF,PressureIn,WindDirection,WindDirectionDegrees,WindSpeedMPH,WindSpeedGustMPH,Humidity,HourlyPrecipIn,Conditions,Clouds,dailyrainin,SoftwareType,DateUTC
2013-07-16 00:04:00,60.1,49.1,29.79,SSE,154,0.0,10.0,67,0.00,,,0.00,meteohub,2013-07-16 07:04:00,
2013-07-16 00:09:00,60.1,49.1,29.79,SSE,154,0.0,6.0,67,0.00,,,0.00,meteohub,2013-07-16 07:09:00,
2013-07-16 00:15:00,60.3,49.3,29.79,East,95,0.0,6.0,67,0.00,,,0.00,meteohub,2013-07-16 07:15:00,
2013-07-16 00:20:00,60.3,49.3,29.79,SSE,150,3.0,6.0,67,0.00,,,0.00,meteohub,2013-07-16 07:20:00,
2013-07-16 00:25:00,60.3,48.9,29.79,SSW,196,10.0,10.0,66,0.00,,,0.00,meteohub,2013-07-16 07:25:00,
2013-07-16 00:31:00,59.9,48.9,29.79,SE,142,2.0,6.0,67,0.00,,,0.00,meteohub,2013-07-16 07:31:00,
2013-07-16 00:36:00,59.5,48.6,29.79,SE,139,4.0,11.0,67,0.00,,,0.00,meteohub,2013-07-16 07:36:00,
2013-07-16 00:41:00,59.4,49.1,29.79,SSE,163,3.0,11.0,69,0.00,,,0.00,meteohub,2013-07-16 07:41:00,
2013-07-16 00:46:00,59.2,49.1,29.79,SSE,149,5.0,10.0,69,0.00,,,0.00,meteohub,2013-07-16 07:46:00,
2013-07-16 00:51:00,59.0,48.9,29.79,SSE,152,0.0,10.0,69,0.00,,,0.00,meteohub,2013-07-16 07:51:00,
2013-07-16 00:56:00,58.8,48.7,29.79,SE,146,0.0,15.0,69,0.00,,,0.00,meteohub,2013-07-16 07:56:00,
2013-07-16 01:02:00,58.6,48.9,29.79,SE,144,4.0,15.0,70,0.00,,,0.00,meteohub,2013-07-16 08:02:00,
2013-07-16 01:07:00,58.3,49.3,29.79,SE,140,0.0,9.0,72,0.00,,,0.00,meteohub,2013-07-16 08:07:00,
2013-07-16 01:12:00,57.9,49.3,29.80,SE,125,0.0,9.0,73,0.00,,,0.00,meteohub,2013-07-16 08:12:00,
2013-07-16 01:17:00,57.9,49.3,29.80,SE,129,4.0,9.0,73,0.00,,,0.00,meteohub,2013-07-16 08:17:00,
2013-07-16 01:22:00,57.6,49.6,29.80,SE,138,3.0,9.0,75,0.00,,,0.00,meteohub,2013-07-16 08:22:00,
2013-07-16 01:27:00,57.4,49.5,29.80,SE,138,0.0,10.0,75,0.00,,,0.00,meteohub,2013-07-16 08:27:00,
2013-07-16 01:32:00,57.0,49.5,29.80,SE,139,0.0,10.0,76,0.00,,,0.00,meteohub,2013-07-16 08:32:00,
2013-07-16 01:37:00,56.8,49.6,29.80,SE,140,3.0,7.0,77,0.00,,,0.00,meteohub,2013-07-16 08:37:00,
2013-07-16 01:42:00,56.7,49.5,29.79,SE,146,0.0,7.0,77,0.00,,,0.00,meteohub,2013-07-16 08:42:00,
2013-07-16 01:47:00,56.7,49.8,29.79,SE,138,0.0,7.0,78,0.00,,,0.00,meteohub,2013-07-16 08:47:00,
2013-07-16 01:52:00,56.5,49.6,29.80,SE,137,4.0,7.0,78,0.00,,,0.00,meteohub,2013-07-16 08:52:00,
2013-07-16 01:57:00,56.5,49.6,29.80,SE,144,0.0,9.0,78,0.00,,,0.00,meteohub,2013-07-16 08:57:00,
2013-07-16 02:02:00,56.3,49.8,29.80,SE,144,5.0,9.0,79,0.00,,,0.00,meteohub,2013-07-16 09:02:00,
2013-07-16 02:07:00,56.1,49.6,29.80,SSE,152,7.0,7.0,79,0.00,,,0.00,meteohub,2013-07-16 09:07:00,
2013-07-16 02:12:00,55.8,49.6,29.80,SSE,149,2.0,7.0,80,0.00,,,0.00,meteohub,2013-07-16 09:12:00,
2013-07-16 02:17:00,55.8,50.0,29.79,SSE,154,0.0,7.0,81,0.00,,,0.00,meteohub,2013-07-16 09:17:00,
2013-07-16 02:22:00,55.8,50.0,29.79,SSE,156,4.0,9.0,81,0.00,,,0.00,meteohub,2013-07-16 09:22:00,
2013-07-16 02:27:00,55.6,50.2,29.80,SSE,154,6.0,9.0,82,0.00,,,0.00,meteohub,2013-07-16 09:27:00,
2013-07-16 02:32:00,55.2,49.8,29.80,SSE,154,7.0,9.0,82,0.00,,,0.00,meteohub,2013-07-16 09:32:00,
2013-07-16 02:37:00,55.2,50.2,29.79,SSE,154,4.0,9.0,83,0.00,,,0.00,meteohub,2013-07-16 09:37:00,
2013-07-16 02:42:00,55.0,50.4,29.79,SSE,152,0.0,9.0,84,0.00,,,0.00,meteohub,2013-07-16 09:42:00,
2013-07-16 02:47:00,54.9,50.2,29.80,SSE,156,0.0,9.0,84,0.00,,,0.00,meteohub,2013-07-16 09:47:00,
2013-07-16 02:52:00,54.9,50.2,29.80,SSE,156,0.0,9.0,84,0.00,,,0.00,meteohub,2013-07-16 09:52:00,
2013-07-16 02:57:00,54.9,50.4,29.80,SSE,155,0.0,6.0,85,0.00,,,0.00,meteohub,2013-07-16 09:57:00,
2013-07-16 03:02:00,54.7,50.2,29.80,SSE,154,1.0,6.0,85,0.00,,,0.00,meteohub,2013-07-16 10:02:00,
2013-07-16 03:07:00,54.7,50.2,29.80,SSE,154,2.0,6.0,85,0.00,,,0.00,meteohub,2013-07-16 10:07:00,
2013-07-16 03:12:00,54.7,50.5,29.80,SSE,153,2.0,6.0,86,0.00,,,0.00,meteohub,2013-07-16 10:12:00,
2013-07-16 03:17:00,54.5,50.4,29.80,SSE,153,4.0,7.0,86,0.00,,,0.00,meteohub,2013-07-16 10:17:00,
2013-07-16 03:22:00,54.3,50.2,29.80,SSE,153,0.0,7.0,86,0.00,,,0.00,meteohub,2013-07-16 10:22:00,
2013-07-16 03:27:00,54.1,50.4,29.80,SSE,152,0.0,7.0,87,0.00,,,0.00,meteohub,2013-07-16 10:27:00,
2013-07-16 03:32:00,54.1,50.4,29.80,SSE,152,1.0,7.0,87,0.00,,,0.00,meteohub,2013-07-16 10:32:00,
2013-07-16 03:37:00,54.1,50.4,29.80,SSE,152,0.0,6.0,87,0.00,,,0.00,meteohub,2013-07-16 10:37:00,
2013-07-16 03:42:00,54.1,50.7,29.80,SSE,152,0.0,6.0,88,0.00,,,0.00,meteohub,2013-07-16 10:42:00,
2013-07-16 03:47:00,54.0,50.5,29.81,SSE,152,0.0,6.0,88,0.00,,,0.00,meteohub,2013-07-16 10:47:00,
2013-07-16 03:52:00,54.0,50.5,29.81,SSE,152,2.0,6.0,88,0.00,,,0.00,meteohub,2013-07-16 10:52:00,
2013-07-16 03:57:00,54.0,50.5,29.81,SSE,151,0.0,5.0,88,0.00,,,0.00,meteohub,2013-07-16 10:57:00,
2013-07-16 04:02:00,53.8,50.4,29.81,SSE,151,3.0,5.0,88,0.00,,,0.00,meteohub,2013-07-16 11:02:00,
2013-07-16 04:07:00,53.8,50.5,29.81,SSE,150,0.0,7.0,89,0.00,,,0.00,meteohub,2013-07-16 11:07:00,
2013-07-16 04:12:00,53.8,50.5,29.81,SSE,150,3.0,7.0,89,0.00,,,0.00,meteohub,2013-07-16 11:12:00,
2013-07-16 04:17:00,53.6,50.4,29.81,SSE,150,0.0,7.0,89,0.00,,,0.00,meteohub,2013-07-16 11:17:00,
2013-07-16 04:22:00,53.8,50.9,29.81,SSE,152,3.0,7.0,90,0.00,,,0.00,meteohub,2013-07-16 11:22:00,
2013-07-16 04:27:00,53.6,50.7,29.81,SSE,152,1.0,7.0,90,0.00,,,0.00,meteohub,2013-07-16 11:27:00,
2013-07-16 04:32:00,53.4,50.5,29.81,SSE,151,1.0,7.0,90,0.00,,,0.00,meteohub,2013-07-16 11:32:00,
2013-07-16 04:37:00,53.6,50.7,29.82,SSE,151,0.0,9.0,90,0.00,,,0.00,meteohub,2013-07-16 11:37:00,
2013-07-16 04:42:00,53.6,50.7,29.82,SSE,151,2.0,9.0,90,0.00,,,0.00,meteohub,2013-07-16 11:42:00,
2013-07-16 04:47:00,53.6,50.7,29.82,SSE,150,2.0,9.0,90,0.00,,,0.00,meteohub,2013-07-16 11:47:00,
2013-07-16 04:52:00,53.4,50.5,29.82,SE,144,6.0,9.0,90,0.00,,,0.00,meteohub,2013-07-16 11:52:00,
2013-07-16 04:57:00,53.4,50.5,29.82,SSE,147,0.0,11.0,90,0.00,,,0.00,meteohub,2013-07-16 11:57:00,
2013-07-16 05:02:00,53.4,50.5,29.82,SSE,148,3.0,11.0,90,0.00,,,0.00,meteohub,2013-07-16 12:02:00,
2013-07-16 05:07:00,53.4,50.5,29.82,SSE,152,2.0,11.0,90,0.00,,,0.00,meteohub,2013-07-16 12:07:00,
2013-07-16 05:12:00,53.4,50.5,29.82,SSE,151,0.0,10.0,90,0.00,,,0.00,meteohub,2013-07-16 12:12:00,
2013-07-16 05:17:00,53.4,50.5,29.82,SSE,148,0.0,10.0,90,0.00,,,0.00,meteohub,2013-07-16 12:17:00,
2013-07-16 05:22:00,53.4,50.5,29.83,SSE,154,3.0,9.0,90,0.00,,,0.00,meteohub,2013-07-16 12:22:00,
2013-07-16 05:27:00,53.4,50.5,29.83,SSE,155,0.0,9.0,90,0.00,,,0.00,meteohub,2013-07-16 12:27:00,
2013-07-16 05:32:00,53.6,50.7,29.83,South,177,0.0,9.0,90,0.00,,,0.00,meteohub,2013-07-16 12:32:00,
2013-07-16 05:37:00,53.8,50.9,29.83,South,183,3.0,9.0,90,0.00,,,0.00,meteohub,2013-07-16 12:37:00,
2013-07-16 05:42:00,53.8,50.9,29.84,South,183,3.0,9.0,90,0.00,,,0.00,meteohub,2013-07-16 12:42:00,
2013-07-16 05:47:00,53.8,50.9,29.84,SSE,159,0.0,9.0,90,0.00,,,0.00,meteohub,2013-07-16 12:47:00,
2013-07-16 05:52:00,53.8,50.9,29.84,South,183,10.0,10.0,90,0.00,,,0.00,meteohub,2013-07-16 12:52:00,
2013-07-16 05:57:00,53.6,50.7,29.84,SSE,166,0.0,10.0,90,0.00,,,0.00,meteohub,2013-07-16 12:57:00,
2013-07-16 06:02:00,53.6,50.7,29.84,South,179,0.0,11.0,90,0.00,,,0.00,meteohub,2013-07-16 13:02:00,
2013-07-16 06:07:00,53.8,50.9,29.85,South,179,0.0,11.0,90,0.00,,,0.00,meteohub,2013-07-16 13:07:00,
2013-07-16 06:12:00,53.8,50.5,29.84,South,179,4.0,11.0,89,0.00,,,0.00,meteohub,2013-07-16 13:12:00,
2013-07-16 06:17:00,53.8,50.5,29.84,South,185,4.0,9.0,89,0.00,,,0.00,meteohub,2013-07-16 13:17:00,
2013-07-16 06:22:00,53.6,50.4,29.85,South,188,5.0,9.0,89,0.00,,,0.00,meteohub,2013-07-16 13:22:00,
2013-07-16 06:27:00,53.4,50.2,29.85,South,188,6.0,9.0,89,0.00,,,0.00,meteohub,2013-07-16 13:27:00,
2013-07-16 06:32:00,53.4,50.2,29.85,South,184,3.0,12.0,89,0.00,,,0.00,meteohub,2013-07-16 13:32:00,
2013-07-16 06:38:00,53.4,50.2,29.85,South,181,0.0,12.0,89,0.00,,,0.00,meteohub,2013-07-16 13:38:00,
2013-07-16 06:43:00,53.6,50.7,29.85,South,183,0.0,12.0,90,0.00,,,0.00,meteohub,2013-07-16 13:43:00,
2013-07-16 06:48:00,53.8,50.5,29.85,South,181,0.0,11.0,89,0.00,,,0.00,meteohub,2013-07-16 13:48:00,
2013-07-16 06:53:00,53.8,50.5,29.86,SSE,165,4.0,11.0,89,0.00,,,0.00,meteohub,2013-07-16 13:53:00,
2013-07-16 06:59:00,53.8,50.5,29.86,SE,136,1.0,11.0,89,0.00,,,0.00,meteohub,2013-07-16 13:59:00,
2013-07-16 07:04:00,53.8,50.4,29.86,South,172,5.0,13.0,88,0.00,,,0.00,meteohub,2013-07-16 14:04:00,
2013-07-16 07:09:00,54.0,50.7,29.86,SSW,193,0.0,13.0,89,0.00,,,0.00,meteohub,2013-07-16 14:09:00,
2013-07-16 07:14:00,54.0,50.5,29.86,South,177,0.0,13.0,88,0.00,,,0.00,meteohub,2013-07-16 14:14:00,
2013-07-16 07:19:00,54.1,50.7,29.87,SSW,208,10.0,15.0,88,0.00,,,0.00,meteohub,2013-07-16 14:19:00,
2013-07-16 07:25:00,54.1,50.4,29.87,South,188,11.0,15.0,87,0.00,,,0.00,meteohub,2013-07-16 14:25:00,
2013-07-16 07:30:00,54.1,50.7,29.87,South,180,0.0,13.0,88,0.00,,,0.00,meteohub,2013-07-16 14:30:00,
2013-07-16 07:35:00,54.3,50.5,29.87,SSE,152,4.0,12.0,87,0.00,,,0.00,meteohub,2013-07-16 14:35:00,
2013-07-16 07:40:00,54.5,50.7,29.87,South,172,2.0,12.0,87,0.00,,,0.00,meteohub,2013-07-16 14:40:00,
2013-07-16 07:45:00,54.7,50.9,29.87,South,171,1.0,11.0,87,0.00,,,0.00,meteohub,2013-07-16 14:45:00,
2013-07-16 07:50:00,54.9,50.7,29.87,South,179,0.0,11.0,86,0.00,,,0.00,meteohub,2013-07-16 14:50:00,
2013-07-16 07:56:00,55.2,50.7,29.88,South,171,0.0,11.0,85,0.00,,,0.00,meteohub,2013-07-16 14:56:00,
2013-07-16 08:01:00,55.6,51.1,29.88,South,190,4.0,11.0,85,0.00,,,0.00,meteohub,2013-07-16 15:01:00,
2013-07-16 08:06:00,55.8,51.1,29.88,South,169,0.0,11.0,84,0.00,,,0.00,meteohub,2013-07-16 15:06:00,
2013-07-16 08:11:00,56.3,51.3,29.88,SSE,168,3.0,11.0,83,0.00,,,0.00,meteohub,2013-07-16 15:11:00,
2013-07-16 08:16:00,56.7,51.3,29.88,SE,133,0.0,11.0,82,0.00,,,0.00,meteohub,2013-07-16 15:16:00,
2013-07-16 08:22:00,56.8,51.4,29.88,South,182,1.0,11.0,82,0.00,,,0.00,meteohub,2013-07-16 15:22:00,
2013-07-16 08:27:00,57.0,51.3,29.88,South,188,9.0,9.0,81,0.00,,,0.00,meteohub,2013-07-16 15:27:00,
2013-07-16 08:32:00,57.4,51.3,29.89,SSW,194,3.0,9.0,80,0.00,,,0.00,meteohub,2013-07-16 15:32:00,
2013-07-16 08:37:00,57.7,51.6,29.89,South,179,0.0,16.0,80,0.00,,,0.00,meteohub,2013-07-16 15:37:00,
2013-07-16 08:42:00,57.9,51.8,29.89,South,188,0.0,16.0,80,0.00,,,0.00,meteohub,2013-07-16 15:42:00,
2013-07-16 08:47:00,58.6,51.8,29.89,South,189,6.0,14.0,78,0.00,,,0.00,meteohub,2013-07-16 15:47:00,
2013-07-16 08:52:00,58.5,51.6,29.89,South,183,5.0,14.0,78,0.00,,,0.00,meteohub,2013-07-16 15:52:00,
2013-07-16 08:57:00,58.6,51.8,29.90,South,177,0.0,16.0,78,0.00,,,0.00,meteohub,2013-07-16 15:57:00,
2013-07-16 09:02:00,59.2,52.0,29.90,South,177,6.0,16.0,77,0.00,,,0.00,meteohub,2013-07-16 16:02:00,
2013-07-16 09:07:00,59.2,51.6,29.90,South,184,0.0,16.0,76,0.00,,,0.00,meteohub,2013-07-16 16:07:00,
2013-07-16 09:12:00,59.4,51.8,29.90,South,188,9.0,16.0,76,0.00,,,0.00,meteohub,2013-07-16 16:12:00,
2013-07-16 09:17:00,60.1,52.2,29.90,SW,220,6.0,13.0,75,0.00,,,0.00,meteohub,2013-07-16 16:17:00,
2013-07-16 09:22:00,60.4,52.2,29.90,SSE,168,4.0,13.0,74,0.00,,,0.00,meteohub,2013-07-16 16:22:00,
2013-07-16 09:27:00,60.6,52.0,29.90,South,188,10.0,11.0,73,0.00,,,0.00,meteohub,2013-07-16 16:27:00,
2013-07-16 09:32:00,61.0,52.3,29.90,South,181,0.0,11.0,73,0.00,,,0.00,meteohub,2013-07-16 16:32:00,
2013-07-16 09:37:00,61.3,52.7,29.90,SSW,192,4.0,11.0,73,0.00,,,0.00,meteohub,2013-07-16 16:37:00,
2013-07-16 09:42:00,61.5,52.3,29.90,South,190,5.0,11.0,72,0.00,,,0.00,meteohub,2013-07-16 16:42:00,
2013-07-16 09:47:00,61.7,52.2,29.90,SW,230,9.0,13.0,71,0.00,,,0.00,meteohub,2013-07-16 16:47:00,
2013-07-16 09:52:00,62.8,52.5,29.90,SSW,202,0.0,13.0,69,0.00,,,0.00,meteohub,2013-07-16 16:52:00,
2013-07-16 09:57:00,63.1,52.3,29.90,SSW,196,3.0,13.0,68,0.00,,,0.00,meteohub,2013-07-16 16:57:00,
2013-07-16 10:02:00,63.1,52.3,29.90,SSW,192,4.0,13.0,68,0.00,,,0.00,meteohub,2013-07-16 17:02:00,
2013-07-16 10:07:00,63.9,53.1,29.90,South,175,1.0,13.0,68,0.00,,,0.00,meteohub,2013-07-16 17:07:00,
2013-07-16 10:12:00,64.0,52.9,29.90,South,186,9.0,13.0,67,0.00,,,0.00,meteohub,2013-07-16 17:12:00,
2013-07-16 10:17:00,64.6,52.5,29.90,SSW,196,0.0,15.0,65,0.00,,,0.00,meteohub,2013-07-16 17:17:00,
2013-07-16 10:22:00,64.9,52.5,29.90,SSW,202,9.0,15.0,64,0.00,,,0.00,meteohub,2013-07-16 17:22:00,
2013-07-16 10:27:00,65.7,52.3,29.90,SSW,198,9.0,15.0,62,0.00,,,0.00,meteohub,2013-07-16 17:27:00,
2013-07-16 10:32:00,65.8,52.5,29.90,SSW,200,0.0,15.0,62,0.00,,,0.00,meteohub,2013-07-16 17:32:00,
2013-07-16 10:37:00,66.0,52.7,29.90,South,188,5.0,15.0,62,0.00,,,0.00,meteohub,2013-07-16 17:37:00,
2013-07-16 10:42:00,66.7,52.9,29.91,SW,219,5.0,15.0,61,0.00,,,0.00,meteohub,2013-07-16 17:42:00,
2013-07-16 10:47:00,66.7,52.3,29.90,WSW,243,0.0,14.0,60,0.00,,,0.00,meteohub,2013-07-16 17:47:00,
2013-07-16 10:52:00,67.6,52.9,29.90,SSW,200,0.0,14.0,59,0.00,,,0.00,meteohub,2013-07-16 17:52:00,
2013-07-16 10:57:00,68.0,52.7,29.90,SW,225,4.0,14.0,58,0.00,,,0.00,meteohub,2013-07-16 17:57:00,
2013-07-16 11:03:00,68.4,52.0,29.91,SW,235,5.0,14.0,56,0.00,,,0.00,meteohub,2013-07-16 18:03:00,
2013-07-16 11:08:00,69.1,52.7,29.91,SSW,208,5.0,15.0,56,0.00,,,0.00,meteohub,2013-07-16 18:08:00,
2013-07-16 11:13:00,69.4,52.5,29.91,SSW,202,0.0,15.0,55,0.00,,,0.00,meteohub,2013-07-16 18:13:00,
2013-07-16 11:18:00,70.0,52.0,29.91,SW,221,3.0,15.0,53,0.00,,,0.00,meteohub,2013-07-16 18:18:00,
2013-07-16 11:23:00,70.5,52.5,29.91,SSW,192,7.0,15.0,53,0.00,,,0.00,meteohub,2013-07-16 18:23:00,
2013-07-16 11:28:00,70.3,52.3,29.90,WSW,252,0.0,16.0,53,0.00,,,0.00,meteohub,2013-07-16 18:28:00,
2013-07-16 11:34:00,70.3,52.3,29.91,WSW,239,4.0,16.0,53,0.00,,,0.00,meteohub,2013-07-16 18:34:00,
2013-07-16 11:39:00,70.3,52.3,29.91,WSW,244,1.0,15.0,53,0.00,,,0.00,meteohub,2013-07-16 18:39:00,
2013-07-16 11:44:00,70.9,52.3,29.91,SSW,196,2.0,15.0,52,0.00,,,0.00,meteohub,2013-07-16 18:44:00,
2013-07-16 11:49:00,71.4,52.3,29.91,South,190,5.0,15.0,51,0.00,,,0.00,meteohub,2013-07-16 18:49:00,
2013-07-16 11:54:00,72.1,52.0,29.91,SW,219,1.0,13.0,49,0.00,,,0.00,meteohub,2013-07-16 18:54:00,
2013-07-16 12:00:00,72.1,52.0,29.91,South,180,4.0,13.0,49,0.00,,,0.00,meteohub,2013-07-16 19:00:00,
2013-07-16 12:05:00,72.0,52.3,29.91,SSW,210,5.0,14.0,50,0.00,,,0.00,meteohub,2013-07-16 19:05:00,
2013-07-16 12:10:00,72.5,51.6,29.91,South,184,1.0,14.0,48,0.00,,,0.00,meteohub,2013-07-16 19:10:00,
2013-07-16 12:15:00,72.3,52.2,29.91,SW,229,6.0,14.0,49,0.00,,,0.00,meteohub,2013-07-16 19:15:00,
2013-07-16 12:20:00,72.9,52.0,29.91,South,169,0.0,14.0,48,0.00,,,0.00,meteohub,2013-07-16 19:20:00,
2013-07-16 12:26:00,73.8,52.3,29.91,SSW,192,11.0,14.0,47,0.00,,,0.00,meteohub,2013-07-16 19:26:00,
2013-07-16 12:31:00,73.9,51.8,29.91,South,185,7.0,14.0,46,0.00,,,0.00,meteohub,2013-07-16 19:31:00,
2013-07-16 12:36:00,73.8,52.3,29.91,SSW,195,7.0,12.0,47,0.00,,,0.00,meteohub,2013-07-16 19:36:00,
2013-07-16 12:41:00,73.8,51.6,29.91,SW,235,4.0,12.0,46,0.00,,,0.00,meteohub,2013-07-16 19:41:00,
2013-07-16 12:46:00,74.1,52.0,29.91,SW,216,3.0,14.0,46,0.00,,,0.00,meteohub,2013-07-16 19:46:00,
2013-07-16 12:52:00,75.0,52.2,29.91,SSE,168,1.0,14.0,45,0.00,,,0.00,meteohub,2013-07-16 19:52:00,
2013-07-16 12:57:00,75.0,52.2,29.91,WSW,247,3.0,11.0,45,0.00,,,0.00,meteohub,2013-07-16 19:57:00,
2013-07-16 13:02:00,75.0,51.6,29.91,South,177,5.0,11.0,44,0.00,,,0.00,meteohub,2013-07-16 20:02:00,
2013-07-16 13:07:00,75.4,52.0,29.91,SW,217,2.0,14.0,44,0.00,,,0.00,meteohub,2013-07-16 20:07:00,
2013-07-16 13:12:00,75.7,52.3,29.91,South,177,3.0,14.0,44,0.00,,,0.00,meteohub,2013-07-16 20:12:00,
2013-07-16 13:17:00,75.9,52.5,29.91,SW,230,2.0,14.0,44,0.00,,,0.00,meteohub,2013-07-16 20:17:00,
2013-07-16 13:22:00,76.5,51.6,29.91,SW,229,3.0,13.0,42,0.00,,,0.00,meteohub,2013-07-16 20:22:00,
2013-07-16 13:27:00,76.5,52.3,29.91,SW,218,4.0,14.0,43,0.00,,,0.00,meteohub,2013-07-16 20:27:00,
2013-07-16 13:32:00,77.2,51.6,29.91,SW,218,4.0,14.0,41,0.00,,,0.00,meteohub,2013-07-16 20:32:00,
2013-07-16 13:37:00,77.2,52.3,29.91,SW,217,6.0,14.0,42,0.00,,,0.00,meteohub,2013-07-16 20:37:00,
2013-07-16 13:42:00,77.7,52.2,29.91,WSW,243,10.0,14.0,41,0.00,,,0.00,meteohub,2013-07-16 20:42:00,
2013-07-16 13:48:00,77.7,51.4,29.91,SSW,200,0.0,16.0,40,0.00,,,0.00,meteohub,2013-07-16 20:48:00,
2013-07-16 13:53:00,78.1,52.5,29.91,WSW,253,9.0,16.0,41,0.00,,,0.00,meteohub,2013-07-16 20:53:00,
2013-07-16 13:58:00,78.4,52.2,29.91,SSW,206,6.0,16.0,40,0.00,,,0.00,meteohub,2013-07-16 20:58:00,
2013-07-16 14:03:00,78.1,52.5,29.90,SSW,208,2.0,16.0,41,0.00,,,0.00,meteohub,2013-07-16 21:03:00,
2013-07-16 14:08:00,78.4,53.4,29.90,WSW,256,11.0,14.0,42,0.00,,,0.00,meteohub,2013-07-16 21:08:00,
2013-07-16 14:13:00,78.3,52.7,29.90,SW,224,6.0,14.0,41,0.00,,,0.00,meteohub,2013-07-16 21:13:00,
2013-07-16 14:19:00,77.5,52.7,29.90,WSW,244,4.0,14.0,42,0.00,,,0.00,meteohub,2013-07-16 21:19:00,
2013-07-16 14:24:00,77.4,53.1,29.90,WSW,252,11.0,14.0,43,0.00,,,0.00,meteohub,2013-07-16 21:24:00,
2013-07-16 14:29:00,77.4,53.1,29.90,WSW,254,6.0,14.0,43,0.00,,,0.00,meteohub,2013-07-16 21:29:00,
2013-07-16 14:34:00,78.1,52.5,29.91,WSW,245,6.0,14.0,41,0.00,,,0.00,meteohub,2013-07-16 21:34:00,
2013-07-16 14:39:00,77.9,51.6,29.90,WSW,242,0.0,14.0,40,0.00,,,0.00,meteohub,2013-07-16 21:39:00,
2013-07-16 14:45:00,78.3,52.0,29.90,SSW,197,3.0,14.0,40,0.00,,,0.00,meteohub,2013-07-16 21:45:00,
2013-07-16 14:50:00,78.3,52.0,29.90,SSW,202,5.0,14.0,40,0.00,,,0.00,meteohub,2013-07-16 21:50:00,
2013-07-16 14:55:00,79.0,52.0,29.90,SW,230,6.0,14.0,39,0.00,,,0.00,meteohub,2013-07-16 21:55:00,
2013-07-16 15:00:00,79.2,51.4,29.90,South,187,7.0,14.0,38,0.00,,,0.00,meteohub,2013-07-16 22:00:00,
2013-07-16 15:05:00,79.5,51.6,29.90,WSW,254,9.0,14.0,38,0.00,,,0.00,meteohub,2013-07-16 22:05:00,
2013-07-16 15:10:00,79.0,51.3,29.90,WSW,252,1.0,14.0,38,0.00,,,0.00,meteohub,2013-07-16 22:10:00,
2013-07-16 15:16:00,79.0,51.3,29.90,SW,227,9.0,15.0,38,0.00,,,0.00,meteohub,2013-07-16 22:16:00,
2013-07-16 15:21:00,79.3,51.4,29.90,South,191,6.0,15.0,38,0.00,,,0.00,meteohub,2013-07-16 22:21:00,
2013-07-16 15:26:00,80.1,52.2,29.91,WSW,243,4.0,14.0,38,0.00,,,0.00,meteohub,2013-07-16 22:26:00,
2013-07-16 15:31:00,80.4,51.8,29.91,WSW,239,9.0,14.0,37,0.00,,,0.00,meteohub,2013-07-16 22:31:00,
2013-07-16 15:36:00,79.3,51.4,29.90,WSW,239,6.0,15.0,38,0.00,,,0.00,meteohub,2013-07-16 22:36:00,
2013-07-16 15:41:00,79.9,52.0,29.90,SSW,211,2.0,15.0,38,0.00,,,0.00,meteohub,2013-07-16 22:41:00,
2013-07-16 15:47:00,80.4,51.8,29.90,South,175,1.0,15.0,37,0.00,,,0.00,meteohub,2013-07-16 22:47:00,
2013-07-16 15:52:00,80.8,51.3,29.90,SW,230,10.0,15.0,36,0.00,,,0.00,meteohub,2013-07-16 22:52:00,
2013-07-16 15:57:00,80.4,51.8,29.89,WSW,238,3.0,17.0,37,0.00,,,0.00,meteohub,2013-07-16 22:57:00,
2013-07-16 16:02:00,80.8,52.2,29.90,SW,221,5.0,17.0,37,0.00,,,0.00,meteohub,2013-07-16 23:02:00,
2013-07-16 16:07:00,81.5,51.3,29.90,WSW,239,5.0,17.0,35,0.00,,,0.00,meteohub,2013-07-16 23:07:00,
2013-07-16 16:12:00,80.8,52.2,29.90,WSW,239,6.0,17.0,37,0.00,,,0.00,meteohub,2013-07-16 23:12:00,
2013-07-16 16:17:00,81.0,52.2,29.90,WSW,258,11.0,12.0,37,0.00,,,0.00,meteohub,2013-07-16 23:17:00,
2013-07-16 16:22:00,80.6,51.3,29.90,WSW,238,6.0,12.0,36,0.00,,,0.00,meteohub,2013-07-16 23:22:00,
2013-07-16 16:27:00,80.4,51.8,29.90,SSW,198,5.0,13.0,37,0.00,,,0.00,meteohub,2013-07-16 23:27:00,
2013-07-16 16:32:00,81.0,52.2,29.89,SSW,206,7.0,13.0,37,0.00,,,0.00,meteohub,2013-07-16 23:32:00,
2013-07-16 16:37:00,81.1,51.6,29.90,SSW,211,7.0,14.0,36,0.00,,,0.00,meteohub,2013-07-16 23:37:00,
2013-07-16 16:42:00,81.0,51.4,29.89,SSW,194,8.0,14.0,36,0.00,,,0.00,meteohub,2013-07-16 23:42:00,
2013-07-16 16:47:00,80.6,52.0,29.89,WSW,249,13.0,14.0,37,0.00,,,0.00,meteohub,2013-07-16 23:47:00,
2013-07-16 16:52:00,80.2,52.3,29.89,SW,230,6.0,14.0,38,0.00,,,0.00,meteohub,2013-07-16 23:52:00,
2013-07-16 16:58:00,80.2,51.6,29.89,WSW,237,5.0,15.0,37,0.00,,,0.00,meteohub,2013-07-16 23:58:00,
2013-07-16 17:03:00,80.4,51.1,29.89,South,182,1.0,15.0,36,0.00,,,0.00,meteohub,2013-07-17 00:03:00,
2013-07-16 17:08:00,79.9,51.3,29.89,WSW,248,6.0,13.0,37,0.00,,,0.00,meteohub,2013-07-17 00:08:00,
2013-07-16 17:12:00,80.1,52.2,29.89,SW,223,6.0,13.0,38,0.00,,,0.00,meteohub,2013-07-17 00:12:00,
2013-07-16 17:17:00,80.4,51.8,29.88,SSW,193,10.0,13.0,37,0.00,,,0.00,meteohub,2013-07-17 00:17:00,
2013-07-16 17:23:00,80.6,52.0,29.89,SSW,195,2.0,13.0,37,0.00,,,0.00,meteohub,2013-07-17 00:23:00,
2013-07-16 17:28:00,80.8,51.3,29.88,SSW,194,11.0,13.0,36,0.00,,,0.00,meteohub,2013-07-17 00:28:00,
2013-07-16 17:33:00,80.2,51.6,29.88,SW,218,0.0,13.0,37,0.00,,,0.00,meteohub,2013-07-17 00:33:00,
2013-07-16 17:38:00,80.2,51.6,29.88,SSW,202,4.0,14.0,37,0.00,,,0.00,meteohub,2013-07-17 00:38:00,
2013-07-16 17:43:00,80.2,50.9,29.88,SSW,194,7.0,14.0,36,0.00,,,0.00,meteohub,2013-07-17 00:43:00,
2013-07-16 17:49:00,79.7,52.5,29.88,South,188,6.0,14.0,39,0.00,,,0.00,meteohub,2013-07-17 00:49:00,
2013-07-16 17:54:00,79.7,51.1,29.88,SSW,212,6.0,13.0,37,0.00,,,0.00,meteohub,2013-07-17 00:54:00,
2013-07-16 17:59:00,79.7,51.8,29.88,SW,221,3.0,13.0,38,0.00,,,0.00,meteohub,2013-07-17 00:59:00,
2013-07-16 18:04:00,79.7,51.8,29.88,SW,215,3.0,13.0,38,0.00,,,0.00,meteohub,2013-07-17 01:04:00,
2013-07-16 18:09:00,79.9,52.0,29.88,SW,220,3.0,13.0,38,0.00,,,0.00,meteohub,2013-07-17 01:09:00,
2013-07-16 18:15:00,79.3,51.4,29.88,SSW,200,1.0,11.0,38,0.00,,,0.00,meteohub,2013-07-17 01:15:00,
2013-07-16 18:20:00,79.2,52.2,29.88,SW,216,10.0,11.0,39,0.00,,,0.00,meteohub,2013-07-17 01:20:00,
2013-07-16 18:25:00,78.8,51.8,29.88,SSW,199,6.0,11.0,39,0.00,,,0.00,meteohub,2013-07-17 01:25:00,
2013-07-16 18:30:00,78.8,51.8,29.88,SW,214,9.0,14.0,39,0.00,,,0.00,meteohub,2013-07-17 01:30:00,
2013-07-16 18:35:00,78.6,51.6,29.89,SSW,208,2.0,14.0,39,0.00,,,0.00,meteohub,2013-07-17 01:35:00,
2013-07-16 18:41:00,78.4,51.4,29.89,South,188,6.0,13.0,39,0.00,,,0.00,meteohub,2013-07-17 01:41:00,
2013-07-16 18:46:00,78.3,52.7,29.89,SSW,202,3.0,14.0,41,0.00,,,0.00,meteohub,2013-07-17 01:46:00,
2013-07-16 18:51:00,77.5,52.0,29.89,SW,223,4.0,14.0,41,0.00,,,0.00,meteohub,2013-07-17 01:51:00,
2013-07-16 18:56:00,77.7,52.2,29.89,SW,217,10.0,14.0,41,0.00,,,0.00,meteohub,2013-07-17 01:56:00,
2013-07-16 19:01:00,77.4,52.5,29.89,South,188,5.0,14.0,42,0.00,,,0.00,meteohub,2013-07-17 02:01:00,
2013-07-16 19:07:00,76.8,52.0,29.89,SSW,206,5.0,13.0,42,0.00,,,0.00,meteohub,2013-07-17 02:07:00,
2013-07-16 19:12:00,76.5,52.3,29.89,South,187,3.0,13.0,43,0.00,,,0.00,meteohub,2013-07-17 02:12:00,
2013-07-16 19:17:00,75.9,53.1,29.90,South,190,12.0,14.0,45,0.00,,,0.00,meteohub,2013-07-17 02:17:00,
2013-07-16 19:22:00,75.4,53.2,29.90,SSW,206,4.0,14.0,46,0.00,,,0.00,meteohub,2013-07-17 02:22:00,
2013-07-16 19:27:00,75.0,52.9,29.90,SW,231,10.0,16.0,46,0.00,,,0.00,meteohub,2013-07-17 02:27:00,
2013-07-16 19:32:00,74.8,52.7,29.90,SSW,212,6.0,16.0,46,0.00,,,0.00,meteohub,2013-07-17 02:32:00,
2013-07-16 19:37:00,74.5,52.9,29.90,SSW,193,12.0,13.0,47,0.00,,,0.00,meteohub,2013-07-17 02:37:00,
2013-07-16 19:42:00,73.8,52.3,29.90,South,188,10.0,13.0,47,0.00,,,0.00,meteohub,2013-07-17 02:42:00,
2013-07-16 19:47:00,73.4,52.5,29.90,SSW,198,1.0,13.0,48,0.00,,,0.00,meteohub,2013-07-17 02:47:00,
2013-07-16 19:52:00,73.0,52.7,29.90,South,190,10.0,13.0,49,0.00,,,0.00,meteohub,2013-07-17 02:52:00,
2013-07-16 19:57:00,72.5,52.9,29.91,SSE,156,4.0,12.0,50,0.00,,,0.00,meteohub,2013-07-17 02:57:00,
2013-07-16 20:02:00,72.0,52.9,29.91,SSW,204,9.0,12.0,51,0.00,,,0.00,meteohub,2013-07-17 03:02:00,
2013-07-16 20:07:00,71.4,52.3,29.91,South,185,7.0,14.0,51,0.00,,,0.00,meteohub,2013-07-17 03:07:00,
2013-07-16 20:12:00,70.9,52.3,29.91,South,183,3.0,14.0,52,0.00,,,0.00,meteohub,2013-07-17 03:12:00,
2013-07-16 20:17:00,70.5,53.1,29.91,South,175,4.0,14.0,54,0.00,,,0.00,meteohub,2013-07-17 03:17:00,
2013-07-16 20:23:00,70.0,53.6,29.92,South,174,4.0,14.0,56,0.00,,,0.00,meteohub,2013-07-17 03:23:00,
2013-07-16 20:28:00,69.4,53.6,29.92,South,183,5.0,12.0,57,0.00,,,0.00,meteohub,2013-07-17 03:28:00,
2013-07-16 20:33:00,68.7,53.8,29.92,SSW,194,7.0,12.0,59,0.00,,,0.00,meteohub,2013-07-17 03:33:00,
2013-07-16 20:38:00,68.4,53.4,29.92,SSW,195,4.0,12.0,59,0.00,,,0.00,meteohub,2013-07-17 03:38:00,
2013-07-16 20:43:00,67.8,53.4,29.92,SSE,168,1.0,12.0,60,0.00,,,0.00,meteohub,2013-07-17 03:43:00,
2013-07-16 20:49:00,67.5,53.6,29.92,South,180,6.0,12.0,61,0.00,,,0.00,meteohub,2013-07-17 03:49:00,
2013-07-16 20:54:00,66.7,53.2,29.92,South,187,7.0,12.0,62,0.00,,,0.00,meteohub,2013-07-17 03:54:00,
2013-07-16 20:59:00,66.4,53.4,29.93,SSE,166,0.0,12.0,63,0.00,,,0.00,meteohub,2013-07-17 03:59:00,
2013-07-16 21:01:00,66.2,53.2,29.93,South,175,5.0,12.0,63,0.00,,,0.00,meteohub,2013-07-17 04:01:00,
2013-07-16 21:02:00,66.2,53.6,29.93,South,175,0.0,12.0,64,0.00,,,0.00,meteohub,2013-07-17 04:02:00,
2013-07-16 21:07:00,65.8,53.2,29.93,South,175,0.0,10.0,64,0.00,,,0.00,meteohub,2013-07-17 04:07:00,
2013-07-16 21:13:00,65.7,53.2,29.93,South,175,0.0,10.0,64,0.00,,,0.00,meteohub,2013-07-17 04:13:00,
2013-07-16 21:18:00,65.3,53.2,29.93,SSW,202,0.0,7.0,65,0.00,,,0.00,meteohub,2013-07-17 04:18:00,
2013-07-16 21:23:00,64.9,53.2,29.93,SSW,192,0.0,7.0,66,0.00,,,0.00,meteohub,2013-07-17 04:23:00,
2013-07-16 21:29:00,64.4,52.9,29.94,South,179,0.0,6.0,66,0.00,,,0.00,meteohub,2013-07-17 04:29:00,
2013-07-16 21:34:00,64.2,53.1,29.94,SSE,163,0.0,6.0,67,0.00,,,0.00,meteohub,2013-07-17 04:34:00,
2013-07-16 21:39:00,63.9,53.1,29.94,South,182,0.0,6.0,68,0.00,,,0.00,meteohub,2013-07-17 04:39:00,
2013-07-16 21:44:00,63.7,52.9,29.94,South,170,0.0,9.0,68,0.00,,,0.00,meteohub,2013-07-17 04:44:00,
2013-07-16 21:49:00,63.3,53.1,29.95,South,178,0.0,9.0,69,0.00,,,0.00,meteohub,2013-07-17 04:49:00,
2013-07-16 21:55:00,63.0,52.7,29.95,South,178,0.0,9.0,69,0.00,,,0.00,meteohub,2013-07-17 04:55:00,
2013-07-16 21:57:00,63.0,52.7,29.95,SE,135,0.0,9.0,69,0.00,,,0.00,meteohub,2013-07-17 04:57:00,
2013-07-16 22:00:00,62.6,52.7,29.95,SE,135,0.0,9.0,70,0.00,,,0.00,meteohub,2013-07-17 05:00:00,
2013-07-16 22:05:00,62.2,52.7,29.96,SE,134,0.0,6.0,71,0.00,,,0.00,meteohub,2013-07-17 05:05:00,
2013-07-16 22:11:00,61.9,52.7,29.96,SE,136,0.0,6.0,72,0.00,,,0.00,meteohub,2013-07-17 05:11:00,
2013-07-16 22:16:00,61.3,52.7,29.96,SE,135,0.0,6.0,73,0.00,,,0.00,meteohub,2013-07-17 05:16:00,
2013-07-16 22:21:00,61.0,52.7,29.96,SE,135,0.0,6.0,74,0.00,,,0.00,meteohub,2013-07-17 05:21:00,
2013-07-16 22:26:00,60.4,52.5,29.96,SE,129,0.0,5.0,75,0.00,,,0.00,meteohub,2013-07-17 05:26:00,
2013-07-16 22:31:00,60.4,52.9,29.96,SE,129,0.0,5.0,76,0.00,,,0.00,meteohub,2013-07-17 05:31:00,
2013-07-16 22:36:00,60.1,52.5,29.96,SE,130,0.0,5.0,76,0.00,,,0.00,meteohub,2013-07-17 05:36:00,
2013-07-16 22:42:00,59.9,52.7,29.96,SE,130,0.0,5.0,77,0.00,,,0.00,meteohub,2013-07-17 05:42:00,
2013-07-16 22:47:00,59.7,52.5,29.96,SE,130,0.0,3.0,77,0.00,,,0.00,meteohub,2013-07-17 05:47:00,
2013-07-16 22:52:00,59.4,52.5,29.96,SE,130,0.0,3.0,78,0.00,,,0.00,meteohub,2013-07-17 05:52:00,
2013-07-16 22:57:00,59.2,52.7,29.96,SE,130,0.0,3.0,79,0.00,,,0.00,meteohub,2013-07-17 05:57:00,
2013-07-16 23:02:00,59.2,52.7,29.96,SE,130,0.0,3.0,79,0.00,,,0.00,meteohub,2013-07-17 06:02:00,
2013-07-16 23:07:00,59.2,52.7,29.96,SE,131,0.0,5.0,79,0.00,,,0.00,meteohub,2013-07-17 06:07:00,
2013-07-16 23:12:00,59.2,52.7,29.96,SE,131,0.0,5.0,79,0.00,,,0.00,meteohub,2013-07-17 06:12:00,
2013-07-16 23:17:00,59.2,52.7,29.97,SE,131,3.0,6.0,79,0.00,,,0.00,meteohub,2013-07-17 06:17:00,
2013-07-16 23:22:00,59.2,52.7,29.96,SE,132,1.0,6.0,79,0.00,,,0.00,meteohub,2013-07-17 06:22:00,
2013-07-16 23:27:00,59.2,52.7,29.97,SE,133,0.0,7.0,79,0.00,,,0.00,meteohub,2013-07-17 06:27:00,
2013-07-16 23:32:00,59.2,52.7,29.97,SE,133,0.0,7.0,79,0.00,,,0.00,meteohub,2013-07-17 06:32:00,
2013-07-16 23:37:00,58.8,52.3,29.97,SE,133,0.0,7.0,79,0.00,,,0.00,meteohub,2013-07-17 06:37:00,
2013-07-16 23:42:00,58.8,52.7,29.97,SE,133,0.0,7.0,80,0.00,,,0.00,meteohub,2013-07-17 06:42:00,
2013-07-16 23:47:00,58.6,52.5,29.97,SE,134,0.0,4.0,80,0.00,,,0.00,meteohub,2013-07-17 06:47:00,
2013-07-16 23:52:00,58.3,52.5,29.98,SE,138,0.0,4.0,81,0.00,,,0.00,meteohub,2013-07-17 06:52:00,
2013-07-16 23:57:00,57.9,52.2,29.98,SE,138,0.0,9.0,81,0.00,,,0.00,meteohub,2013-07-17 06:57:00,